• In Austria
  • List of Countries
  • For 7 days
  • Water Temperature
  • Satellite Maps
  • Weather Map
  • News
  • Weather Widgets
  • user-avatar
    Login

    Hourly Weather Yulara

    Today, 25 May, Friday

    Time Temperature Precipitation Wind Pressure Humidity
    00:00 +13°C° 0 mm 4 mps 720 mmHg 45%
    01:00 +12°C° 0 mm 4 mps 720 mmHg 48%
    02:00 +12°C° 0 mm 4 mps 720 mmHg 50%
    03:00 +12°C° 0 mm 4 mps 720 mmHg 52%
    04:00 +11°C° 0 mm 4 mps 720 mmHg 55%
    05:00 +11°C° 0 mm 4 mps 720 mmHg 57%
    06:00 +11°C° 0 mm 4 mps 720 mmHg 59%
    07:00 +12°C° 0 mm 4 mps 720 mmHg 55%
    08:00 +14°C° 0 mm 5 mps 721 mmHg 51%
    09:00 +16°C° 0 mm 6 mps 721 mmHg 45%
    10:00 +19°C° 0 mm 6 mps 720 mmHg 40%
    11:00 +22°C° 0 mm 6 mps 720 mmHg 35%
    12:00 +24°C° 0 mm 6 mps 720 mmHg 29%
    13:00 +26°C° 0 mm 5 mps 719 mmHg 27%
    14:00 +26°C° 0 mm 5 mps 719 mmHg 24%
    15:00 +27°C° 0 mm 4 mps 718 mmHg 21%
    16:00 +26°C° 0 mm 4 mps 718 mmHg 23%
    17:00 +23°C° 0 mm 4 mps 718 mmHg 25%
    18:00 +22°C° 0 mm 4 mps 719 mmHg 27%
    19:00 +21°C° 0 mm 4 mps 719 mmHg 29%
    20:00 +20°C° 0 mm 5 mps 719 mmHg 30%
    21:00 +19°C° 0 mm 5 mps 719 mmHg 32%
    22:00 +17°C° 0 mm 5 mps 719 mmHg 33%
    23:00 +17°C° 0 mm 5 mps 719 mmHg 33%

    Tomorrow, 26 May, Saturday

    Time Temperature Precipitation Wind Pressure Humidity
    00:00 +16°C° 0 mm 5 mps 719 mmHg 34%
    01:00 +16°C° 0 mm 5 mps 719 mmHg 34%
    02:00 +16°C° 0 mm 5 mps 719 mmHg 34%
    03:00 +16°C° 0 mm 6 mps 719 mmHg 34%
    04:00 +15°C° 0 mm 5 mps 719 mmHg 34%
    05:00 +15°C° 0 mm 5 mps 719 mmHg 35%
    06:00 +14°C° 0 mm 4 mps 719 mmHg 36%
    07:00 +17°C° 0 mm 4 mps 719 mmHg 35%
    08:00 +18°C° 0 mm 4 mps 720 mmHg 33%
    09:00 +19°C° 0 mm 4 mps 720 mmHg 32%
    10:00 +21°C° 0 mm 5 mps 720 mmHg 29%
    11:00 +24°C° 0 mm 6 mps 720 mmHg 26%
    12:00 +27°C° 0 mm 6 mps 719 mmHg 23%
    13:00 +27°C° 0 mm 5 mps 719 mmHg 21%
    14:00 +28°C° 0 mm 4 mps 719 mmHg 20%
    15:00 +28°C° 0 mm 4 mps 718 mmHg 18%
    16:00 +27°C° 0 mm 3 mps 718 mmHg 20%
    17:00 +25°C° 0 mm 3 mps 718 mmHg 23%
    18:00 +23°C° 0 mm 2 mps 718 mmHg 25%
    19:00 +23°C° 0 mm 2 mps 718 mmHg 29%
    20:00 +21°C° 0 mm 3 mps 719 mmHg 32%
    21:00 +20°C° 0 mm 3 mps 719 mmHg 36%
    22:00 +20°C° 0 mm 3 mps 719 mmHg 38%
    23:00 +20°C° 0 mm 3 mps 719 mmHg 40%

    Day after tomorrow, 27 May, Sunday

    Time Temperature Precipitation Wind Pressure Humidity
    00:00 +20°C° 0 mm 2 mps 719 mmHg 42%
    01:00 +19°C° 0.1 mm 3 mps 719 mmHg 45%
    02:00 +19°C° 0.1 mm 3 mps 718 mmHg 48%
    03:00 +18°C° 0.1 mm 3 mps 718 mmHg 51%
    04:00 +19°C° 0 mm 3 mps 718 mmHg 51%
    05:00 +19°C° 0 mm 2 mps 718 mmHg 51%
    06:00 +19°C° 0 mm 2 mps 718 mmHg 52%
    07:00 +19°C° 0 mm 3 mps 719 mmHg 48%
    08:00 +20°C° 0 mm 3 mps 719 mmHg 44%
    09:00 +21°C° 0 mm 4 mps 720 mmHg 41%
    10:00 +23°C° 0 mm 5 mps 719 mmHg 35%
    11:00 +26°C° 0 mm 5 mps 719 mmHg 30%
    12:00 +28°C° 0 mm 6 mps 719 mmHg 25%
    13:00 +29°C° 0 mm 6 mps 719 mmHg 24%
    14:00 +29°C° 0 mm 5 mps 718 mmHg 23%
    15:00 +30°C° 0 mm 5 mps 718 mmHg 21%
    16:00 +28°C° 0 mm 5 mps 718 mmHg 24%
    17:00 +26°C° 0 mm 4 mps 718 mmHg 27%
    18:00 +24°C° 0 mm 3 mps 718 mmHg 30%
    19:00 +22°C° 0 mm 3 mps 718 mmHg 35%
    20:00 +21°C° 0 mm 4 mps 719 mmHg 39%
    21:00 +20°C° 0 mm 5 mps 719 mmHg 44%
    22:00 +19°C° 0 mm 4 mps 719 mmHg 45%
    23:00 +19°C° 0 mm 4 mps 719 mmHg 47%

    28 May, Monday

    Time Temperature Precipitation Wind Pressure Humidity
    00:00 +18°C° 0 mm 4 mps 719 mmHg 48%
    01:00 +17°C° 0 mm 4 mps 719 mmHg 48%
    02:00 +17°C° 0 mm 4 mps 719 mmHg 49%
    03:00 +15°C° 0 mm 4 mps 719 mmHg 49%
    04:00 +15°C° 0 mm 4 mps 719 mmHg 49%
    05:00 +15°C° 0 mm 4 mps 720 mmHg 49%
    06:00 +14°C° 0 mm 4 mps 720 mmHg 50%
    07:00 +17°C° 0 mm 4 mps 720 mmHg 46%
    08:00 +18°C° 0 mm 4 mps 721 mmHg 42%
    09:00 +20°C° 0 mm 4 mps 721 mmHg 38%
    10:00 +21°C° 0 mm 3 mps 721 mmHg 36%
    11:00 +24°C° 0 mm 2 mps 721 mmHg 33%
    12:00 +26°C° 0 mm 1 mps 721 mmHg 31%
    13:00 +26°C° 0 mm 1 mps 720 mmHg 29%
    14:00 +27°C° 0 mm 2 mps 720 mmHg 27%
    15:00 +28°C° 0 mm 2 mps 719 mmHg 24%
    16:00 +26°C° 0 mm 2 mps 719 mmHg 27%
    17:00 +24°C° 0 mm 2 mps 719 mmHg 29%
    18:00 +23°C° 0 mm 2 mps 719 mmHg 32%
    19:00 +21°C° 0 mm 3 mps 720 mmHg 32%
    20:00 +20°C° 0 mm 3 mps 721 mmHg 32%
    21:00 +20°C° 0 mm 4 mps 721 mmHg 32%
    22:00 +19°C° 0 mm 4 mps 721 mmHg 34%
    23:00 +17°C° 0 mm 5 mps 721 mmHg 35%

    29 May, Tuesday

    Time Temperature Precipitation Wind Pressure Humidity
    00:00 +17°C° 0 mm 5 mps 721 mmHg 37%
    01:00 +16°C° 0 mm 5 mps 721 mmHg 39%
    02:00 +16°C° 0 mm 5 mps 721 mmHg 42%
    03:00 +15°C° 0 mm 5 mps 721 mmHg 45%
    04:00 +15°C° 0 mm 5 mps 722 mmHg 49%
    05:00 +14°C° 0 mm 5 mps 722 mmHg 53%
    06:00 +14°C° 0 mm 5 mps 722 mmHg 57%
    07:00 +14°C° 0 mm 6 mps 723 mmHg 57%
    08:00 +15°C° 0 mm 7 mps 724 mmHg 57%
    09:00 +16°C° 0 mm 8 mps 724 mmHg 57%
    10:00 +18°C° 0 mm 8 mps 724 mmHg 51%
    11:00 +20°C° 0 mm 8 mps 724 mmHg 45%
    12:00 +22°C° 0 mm 7 mps 724 mmHg 40%
    13:00 +23°C° 0 mm 7 mps 723 mmHg 38%
    14:00 +23°C° 0 mm 7 mps 723 mmHg 36%
    15:00 +24°C° 0 mm 6 mps 722 mmHg 34%
    16:00 +22°C° 0 mm 6 mps 723 mmHg 37%
    17:00 +21°C° 0 mm 6 mps 723 mmHg 40%
    18:00 +20°C° 0 mm 5 mps 723 mmHg 43%
    19:00 +19°C° 0 mm 6 mps 724 mmHg 45%
    20:00 +17°C° 0 mm 6 mps 724 mmHg 47%
    21:00 +16°C° 0 mm 6 mps 725 mmHg 49%
    22:00 +15°C° 0 mm 6 mps 725 mmHg 50%
    23:00 +14°C° 0 mm 6 mps 725 mmHg 51%

    30 May, Wednesday

    Time Temperature Precipitation Wind Pressure Humidity
    00:00 +14°C° 0 mm 6 mps 725 mmHg 51%
    01:00 +13°C° 0 mm 6 mps 725 mmHg 52%
    02:00 +13°C° 0 mm 6 mps 725 mmHg 52%
    03:00 +11°C° 0 mm 6 mps 725 mmHg 52%
    04:00 +11°C° 0 mm 6 mps 725 mmHg 52%
    05:00 +10°C° 0 mm 6 mps 725 mmHg 51%
    06:00 +10°C° 0 mm 5 mps 725 mmHg 51%
    07:00 +11°C° 0 mm 6 mps 726 mmHg 47%
    08:00 +12°C° 0 mm 7 mps 726 mmHg 44%
    09:00 +13°C° 0 mm 8 mps 727 mmHg 40%
    10:00 +16°C° 0 mm 8 mps 726 mmHg 37%
    11:00 +17°C° 0 mm 8 mps 726 mmHg 34%
    12:00 +20°C° 0 mm 8 mps 726 mmHg 31%
    13:00 +21°C° 0 mm 7 mps 725 mmHg 30%
    14:00 +21°C° 0 mm 7 mps 725 mmHg 30%
    15:00 +22°C° 0 mm 7 mps 724 mmHg 29%
    16:00 +20°C° 0 mm 7 mps 724 mmHg 31%
    17:00 +19°C° 0 mm 6 mps 724 mmHg 34%
    18:00 +17°C° 0 mm 5 mps 724 mmHg 37%
    19:00 +16°C° 0 mm 6 mps 725 mmHg 38%
    20:00 +15°C° 0 mm 6 mps 725 mmHg 39%
    21:00 +14°C° 0 mm 6 mps 726 mmHg 40%
    22:00 +13°C° 0 mm 6 mps 726 mmHg 39%
    23:00 +12°C° 0 mm 5 mps 726 mmHg 39%
    Show more